SAUDICOMSAT 3

Last updated on Sun Jun 21 2026 00:03:22 GMT+0000 (Coordinated Universal Time)

1 31125U 07012J 26171.44881699 .00000653 00000+0 11458-3 0 9993 2 31125 98.3144 146.9417 0040076 43.2109 317.2229 14.70710395 25304
UTC large
Height (km)
Speed (km/s)
/
Latitude / Longitude
Inclination (degrees)
Orbital Period (minutes)
Azimuth
Elevation
Range (km)
Doppler Factor

Next 0 passes for location: London (51.5072 / 0.1276)

No passes found over London.
SAUDICOMSAT 3